Location: Pilipovskiye Korichintsy
(49.1833°N, 27.4667°E)
Time: 22:44:24
(UTC+00:00)

SeaSat 1 - Pass Details

Date: 14 July 2020
Orbit: 744 x 748 km, 108.0° (Epoch: 10 August)

Event Time Altitude Azimuth Distance (km) Brightness Sun altitude
Rises 00:33:51 0° 28° (NNE) 3,202 7.8 -12.8°
Reaches altitude 10° 00:36:08 10° 28° (NNE) 2,275 6.5 -12.6°
Maximum altitude 00:41:05 81° 301° (WNW) 762 2.5 -12.2°
Enters shadow 00:45:00 16° 216° (SW) 1,856 3.8 -11.8°
